TimePST,TemperatureF,Dew PointF,Humidity,Sea Level PressureIn,VisibilityMPH,Wind Direction,Wind SpeedMPH,Gust SpeedMPH,PrecipitationIn,Events,Conditions,WindDirDegrees,DateUTC
12:53 AM,39.0,36.0,89,30.28,10.0,ENE,4.6,-,N/A,,Clear,70,2013-01-01 08:53:00
1:53 AM,39.9,35.1,83,30.27,10.0,East,6.9,-,N/A,,Clear,100,2013-01-01 09:53:00
2:53 AM,39.9,35.1,83,30.25,10.0,SE,5.8,-,N/A,,Clear,130,2013-01-01 10:53:00
3:53 AM,39.9,34.0,79,30.28,10.0,Calm,Calm,-,N/A,,Overcast,0,2013-01-01 11:53:00
4:53 AM,39.0,35.1,86,30.26,10.0,Calm,Calm,-,N/A,,Mostly Cloudy,0,2013-01-01 12:53:00
5:53 AM,39.9,35.1,83,30.27,10.0,Calm,Calm,-,N/A,,Overcast,0,2013-01-01 13:53:00
6:53 AM,39.0,35.1,86,30.28,10.0,SE,3.5,-,N/A,,Overcast,140,2013-01-01 14:53:00
7:53 AM,39.0,35.1,86,30.26,10.0,East,10.4,-,N/A,,Scattered Clouds,90,2013-01-01 15:53:00
8:53 AM,42.1,36.0,79,30.27,10.0,SE,6.9,-,N/A,,Clear,130,2013-01-01 16:53:00
9:53 AM,45.0,36.0,71,30.28,10.0,ESE,4.6,-,N/A,,Clear,120,2013-01-01 17:53:00
10:53 AM,48.9,39.0,69,30.27,10.0,ESE,5.8,-,N/A,,Clear,110,2013-01-01 18:53:00
11:53 AM,52.0,37.9,59,30.25,10.0,ENE,3.5,-,N/A,,Clear,70,2013-01-01 19:53:00
12:53 PM,55.0,36.0,49,30.21,10.0,SE,8.1,-,N/A,,Clear,130,2013-01-01 20:53:00
1:53 PM,55.9,34.0,44,30.19,10.0,ESE,9.2,-,N/A,,Clear,110,2013-01-01 21:53:00
2:53 PM,57.0,33.1,40,30.19,10.0,Calm,Calm,-,N/A,,Clear,0,2013-01-01 22:53:00
3:53 PM,55.0,37.0,51,30.19,10.0,NNW,12.7,-,N/A,,Clear,340,2013-01-01 23:53:00
4:53 PM,52.0,37.9,59,30.20,10.0,NNE,11.5,-,N/A,,Clear,20,2013-01-02 00:53:00
5:53 PM,50.0,37.0,61,30.21,10.0,NNE,9.2,-,N/A,,Clear,20,2013-01-02 01:53:00
6:53 PM,46.9,37.0,68,30.24,10.0,South,3.5,-,N/A,,Clear,180,2013-01-02 02:53:00
7:53 PM,46.9,36.0,66,30.25,10.0,WSW,3.5,-,N/A,,Clear,250,2013-01-02 03:53:00
8:53 PM,43.0,36.0,76,30.27,9.0,Calm,Calm,-,N/A,,Clear,0,2013-01-02 04:53:00
9:53 PM,39.9,37.0,89,30.27,8.0,ESE,3.5,-,N/A,,Clear,120,2013-01-02 05:53:00
10:53 PM,42.1,35.1,76,30.28,10.0,ENE,8.1,-,N/A,,Clear,70,2013-01-02 06:53:00
11:53 PM,42.1,35.1,76,30.25,10.0,East,16.1,-,N/A,,Clear,100,2013-01-02 07:53:00